Location: Herm
(49.4830°N, 2.4500°W)
Time: 04:34:12
(UTC+00:00)

Envisat - Pass Details

Date: 06 October 2022
Orbit: 763 x 765 km, 98.2° (Epoch: 09 December)

Event Time Altitude Azimuth Distance (km) Brightness Sun altitude
Rises 06:24:14 0° 9° (N) 3,247 6.4 -9.4°
Reaches altitude 10° 06:26:39 10° 2° (N) 2,316 5.6 -9.0°
Maximum altitude 06:31:25 42° 293° (WNW) 1,089 3.4 -8.2°
Drops below altitude 10° 06:36:10 10° 224° (SW) 2,300 5.1 -7.4°
Sets 06:38:33 0° 217° (SW) 3,222 5.9 -7.0°
